SWARM A

Last updated on Thu Nov 21 2024 00:03:26 GMT+0000 (Coordinated Universal Time)

1 39452U 13067B 24325.53656654 .00014433 00000+0 40046-3 0 9997 2 39452 87.3393 266.6180 0003532 91.2045 268.9613 15.36792780617738
UTC large
Height (km)
Speed (km/s)
/
Latitude / Longitude
Inclination (degrees)
Orbital Period (minutes)
Azimuth
Elevation
Range (km)
Doppler Factor

Next 0 passes for location: London (51.5072 / 0.1276)

Sorry there are no passes over London.